Alexandria Esle, LA

4:14 AM CDT on July 27, 2017 (GMT -0500)
Alexandria Esler Regional

Weather History for KESF - December, 2013

Change the Weather History Date:

Thursday, December 19, 2013

  Actual Average Record
Temperature  
Mean Temperature 56 °F -  
Max Temperature 73 °F 59 °F 78 °F (2012)
Min Temperature 39 °F 40 °F 18 °F (1975)
Degree Days  
Heating Degree Days 9    
Growing Degree Days 6 (Base 50)    
Moisture  
Dew Point 49 °F    
Average Humidity 72    
Maximum Humidity 93    
Minimum Humidity 46    
Precipitation  
Precipitation 0.00 in - - ()
Sea Level Pressure  
Sea Level Pressure 30.07 in    
Wind  
Wind Speed 4 mph (SSE)    
Max Wind Speed 17 mph    
Max Gust Speed 25 mph    
Visibility 8 miles    
Events      
Averages and records for this station are not official NWS values.
T = Trace of Precipitation, MM = Missing Value Source: NWS Daily Summary

Daily Weather History Graph

Daily Weather History Graph

Search for Another Location

Airport or City:

Trip Planner

Search our weather history database for the weather conditions in past years. The results will help you decide how hot, cold, wet, or windy it might be!

Date:

Astronomy

Dec. 19, 2013 Rise Set
Actual Time 7:03 AM CST 5:09 PM CST
Civil Twilight 6:36 AM CST 5:36 PM CST
Nautical Twilight 6:06 AM CST 6:06 PM CST
Astronomical Twilight 5:36 AM CST 6:36 PM CST
Moon 7:28 PM CST (12/19) 8:29 AM CST (12/19)
Length of Visible Light 11h 00m
Length of Day
10h 06m
Waning Gibbous, 95% of the Moon is Illuminated
Dec 19
Waning Gibbous
Dec 25
Last Quarter
Jan 1
New
Jan 7
First Quarter
Jan 15
Full

Hourly Weather History & Observations

Time (CST) Temp. Dew Point Humidity Pressure Visibility Wind Dir Wind Speed Gust Speed Precip Events Conditions
12:53 AM 48.0 °F 41.0 °F 77% 30.17 in 10.0 mi SSW 4.6 mph - N/A   Clear
1:53 AM 43.0 °F 39.0 °F 86% 30.17 in 9.0 mi Calm Calm - N/A   Clear
2:53 AM 41.0 °F 37.9 °F 89% 30.16 in 6.0 mi Calm Calm - N/A   Clear
3:04 AM 39.2 °F 37.4 °F 93% 30.16 in 1.5 mi Calm Calm - N/A   Scattered Clouds
3:47 AM 39.2 °F 37.4 °F 93% 30.15 in 3.0 mi Calm Calm - N/A   Mostly Cloudy
3:53 AM 39.9 °F 37.9 °F 93% 30.15 in 5.0 mi Calm Calm - N/A   Mostly Cloudy
4:53 AM 44.1 °F 41.0 °F 89% 30.14 in 6.0 mi Calm Calm - N/A   Overcast
5:53 AM 46.0 °F 43.0 °F 89% 30.13 in 7.0 mi Calm Calm - N/A   Overcast
6:53 AM 48.0 °F 44.1 °F 86% 30.14 in 8.0 mi Calm Calm - N/A   Overcast
7:53 AM 50.0 °F 46.0 °F 86% 30.14 in 8.0 mi Calm Calm - N/A   Overcast
8:53 AM 54.0 °F 48.9 °F 83% 30.13 in 10.0 mi Calm Calm - N/A   Overcast
9:53 AM 61.0 °F 52.0 °F 72% 30.12 in 10.0 mi SSE 5.8 mph - N/A   Mostly Cloudy
10:16 AM 64.4 °F 53.6 °F 68% 30.13 in 1.2 mi SSE 6.9 mph - N/A   Haze
10:24 AM 66.2 °F 53.6 °F 64% 30.12 in 10.0 mi Variable 5.8 mph - N/A   Clear
10:53 AM 69.1 °F 52.0 °F 54% 30.10 in 10.0 mi Variable 5.8 mph - N/A   Clear
11:53 AM 73.0 °F 52.0 °F 48% 30.07 in 10.0 mi South 9.2 mph 19.6 mph N/A   Scattered Clouds
12:53 PM 73.9 °F 52.0 °F 46% 30.04 in 10.0 mi South 17.3 mph 25.3 mph N/A   Partly Cloudy
1:53 PM 73.0 °F 54.0 °F 51% 30.01 in 10.0 mi South 8.1 mph - N/A   Overcast
2:53 PM 73.0 °F 54.0 °F 51% 30.00 in 10.0 mi South 12.7 mph 20.7 mph N/A   Overcast
3:53 PM 72.0 °F 54.0 °F 53% 29.98 in 10.0 mi SSE 10.4 mph - N/A   Overcast
4:53 PM 71.1 °F 54.0 °F 55% 29.99 in 10.0 mi South 8.1 mph 16.1 mph N/A   Mostly Cloudy
5:53 PM 69.1 °F 55.0 °F 61% 29.99 in 10.0 mi South 8.1 mph - N/A   Overcast
6:53 PM 66.9 °F 55.9 °F 68% 29.99 in 10.0 mi SSE 5.8 mph - N/A   Overcast
7:53 PM 64.9 °F 55.0 °F 70% 29.98 in 10.0 mi SSE 5.8 mph - N/A   Partly Cloudy
8:53 PM 66.0 °F 57.0 °F 73% 29.98 in 10.0 mi South 6.9 mph - N/A   Overcast
9:53 PM 66.9 °F 57.9 °F 73% 29.99 in 10.0 mi South 8.1 mph - N/A   Mostly Cloudy
10:53 PM 66.9 °F 59.0 °F 76% 29.99 in 10.0 mi South 8.1 mph - N/A   Mostly Cloudy
11:53 PM 66.0 °F 59.0 °F 78% 29.96 in 10.0 mi SSE 5.8 mph - N/A   Mostly Cloudy